Yunhai-3 02

operational
NORAD ID: 59343 Int'l Des: 2024-058 Owner: SAST Country: CN
LEOCIRCULARRETROGRADESSO

Yunhai-3 02について

説明を読み込み中...

リアルタイム位置

3D地球を読み込み中...

次回通過

高度履歴

Altitude vs Time

uPlot chart will show altitude changes over time

軌道要素

1 59343U 24058A 26062.21220971 .00000040 00000-0 44449-4 0 9996
2 59343 98.8241 71.5281 0000752 94.3435 265.7823 14.13461287 99776
Epoch: Mar 3, 2026 • Age: 21 hours

現在のステータス

高度 852.8 km
速度 7.43 km/s
衛星直下点 39.88°N, 142.33°E
打ち上げ日 Mar 26, 2024
運用期間 1.9 years
タイプ other

技術仕様

分類 Payload
質量 1500.00 kg
乾燥質量 1300.00 kg
総質量 1500.00 kg
長さ 2.00 m
直径 1.50 m
スパン 4.00 m
形状 Box + 2 Pan
製造者 SAST
バスタイプ SAST-3000
フェーズステータス In Orbit
所有者/国 SAST/CN

大規模コンステレーション

Loading constellations...